SCP
0 0 0 0 0 0 0 0 0 0 0 0 0 0 0 0 0 0 0 0 0 0 0 0 0 0 0 0 0 0 0 0 0 0 0 0 0 0 0 0 0 0 0
0 0 0 0 0 0 0 0 0 0 0 0 0 0 0 0 0 0 0 0 0 0 0 0 0 0 0 0 0 0 0 0 0 0 0 0 0 0 0 0 0 0 0
0 0 0 0 0 0 0 0 0 0 0 0 0 0 0 0 0 0 0 0 0 0 0 0 0 0 0 0 0 0 0 0 0 0 0 0 0 0 0 -0 -0 -0 -0
0 0 0 0 0 0 0 0 0 0 0 0 0 0 0 0 0 0 0 0 0 0 0 0 0 0 0 0 0 0 0 0 0 0 0 0 0 0 -0 -0 -0 -0 -0
0 0 0 0 0 0 0 0 0 0 0 0 0 0 0 0 0 0 0 0 0 0 0 0 0 0 0 0 0 0 0 0 0 0 0 0 0 -0 -0 0 0 0 0
0 0 0 0 0 0 0 0 0 0 0 0 0 0 0 0 0 0 0 0 0 0 0 0 0 0 0 0 0 0 0 0 0 0 0 0 0 -0 -0 0 0 0 -0
0 0 0 0 0 0 0 0 0 0 0 0 0 0 0 0 0 0 0 0 0 0 0 0 0 0 0 0 0 0 0 0 0 0 0 0 0 -0 -0 0 0 0 0
0 0 0 0 0 0 0 0 0 0 0 0 0 0 0 0 0 0 0 0 0 0 0 0 0 0 0 0 0 0 0 0 0 0 0 0 0 0 0 0 0 0 0
0 0 0 0 0 0 0 0 0 0 0 0 0 0 0 0 0 0 0 0 0 0 0 0 0 0 0 0 0 0 0 0 0 0 0 0 -0 -0 -0 -0 -0 -0 -0
0 0 0 0 0 0 0 0 0 0 0 0 0 0 0 0 0 0 0 0 0 0 0 0 0 0 0 0 0 -0 0 0 0 0 0 0 -0 0 -0 0 0 -0 0
0 0 0 0 0 0 0 0 0 0 0 0 0 0 0 0 0 0 0 0 0 0 0 0 0 0 0 0 0 0 0 0 0 0 0 0 0 0 0 0 0 0 0
0 0 0 0 0 0 0 0 0 0 0 0 0 0 0 0 0 0 0 0 0 0 0 0 0 0 0 0 0 0 0 0 -0 -0 -0 -0 0 0 0 0 0 0 0
0 0 0 0 0 0 0 0 0 0 0 0 0 0 0 0 0 0 0 0 0 0 0 0 0 0 0 0 0 -0 -0 -0 -0 -0 -0 0 0 0 0 0 0 0 0
0 0 0 0 0 0 0 0 0 0 0 0 0 0 0 0 0 0 0 0 0 0 0 0 0 0 0 0 0 0 -0 -0 -0 -0 -0 -0 0 0 0 0 0 0 0
0 0 0 0 0 0 0 0 0 0 0 0 0 0 0 0 0 0 0 0 0 0 0 0 0 0 0 0 0 0 0 -0 -0 0 0 -0 0 0 0 0 0 0 0
0 0 0 0 0 0 0 0 0 0 0 0 0 0 0 0 0 0 0 0 0 0 -0 -0 -0 0 0 0 0 0 -0 0 0 0 0 -0 0 0 0 0 0 0 0
0 0 0 0 0 0 0 0 0 0 0 0 0 0 0 0 0 0 0 0 0 0 -0 -0 -0 -0 0 -0 0 0 0 0 0 0 -0 -0 0 0 -0 0 0 0 0
-0 0 0 -0 -0 0 0 0 0 0 0 0 0 0 0 0 0 0 0 0 -0 0 -0 -0 -0 -0 -0 -0 0 0 0 0 0 0 0 0 0 0 -0 0 0 0 0
0 -0 -0 -0 0 0 0 0 0 0 0 0 0 0 0 0 0 0 0 -0 -0 -0 -0 -0 -0 -0 -0 -0 0 0 0 0 0 0 0 0 0 0 0 0 0 -0 0
-0 0 0 -0 -0 -0 0 0 0 0 0 0 0 0 -0 0 0 0 0 -0 -0 -0 -0 -0 -0 -0 -0 -0 0 0 0 0 0 0 0 0 0 -0 -0 0 0 0 0
0 0 0 0 0 -0 -0 0 0 0 0 0 0 -0 0 -0 -0 0 0 -0 -0 0 0 0 -0 -0 -0 -0 -0 0 0 0 0 0 0 0 0 0 -0 0 -0 0 0
0 0 0 0 0 0 0 0 0 0 0 0 0 0 0 0 0 0 0 0 0 0 0 0 0 -0 -0 -0 -0 -0 -0 -0 0 0 0 0 0 0 0 0 0 0 0
0 0 0 0 0 0 0 0 0 0 0 0 0 0 0 0 0 0 0 0 0 0 0 0 0 0 0 -0 -0 -0 -0 -0 0 0 0 0 0 0 -0 -0 0 0 0
0 0 0 0 0 0 0 0 0 0 0 0 0 0 0 0 0 0 0 0 0 0 0 0 0 0 0 0 0 0 0 0 0 0 -0 -0 -0 -0 -0 -0 -0 0 0
0 0 0 0 0 0 0 0 0 0 0 0 0 0 0 0 0 0 0 0 0 0 0 0 0 0 0 0 0 0 0 -0 -0 -0 -0 -0 -0 -0 -0 -0 -0 -0 0
0 0 0 0 0 0 0 0 0 0 0 0 0 0 0 0 0 0 0 0 0 0 0 0 0 0 0 0 0 0 0 0 0 -0 -0 -0 -0 -0 -0 -0 -0 -0 -0
Wind_Speed_500mb
80 76 65 57 49 43 36 31 29 26 27 25 21 18 14 11 11 13 16 19 21 26 30 36 40 44 42 40 37 34 34 42 56 62 59 50 49 51 53 58 58 60 63
81 71 60 55 50 41 38 38 34 34 28 21 18 17 14 11 13 16 20 25 27 32 39 37 37 38 36 35 36 37 38 47 59 60 53 51 55 57 62 66 72 75 77
76 62 58 55 49 46 44 42 39 31 27 25 21 17 13 13 14 19 25 31 35 33 33 31 30 32 35 37 37 41 47 53 48 42 44 52 57 64 69 73 79 85 86
67 61 63 58 58 50 49 46 39 35 29 23 18 14 13 15 19 25 30 30 29 31 31 29 30 32 34 39 45 50 50 45 41 43 53 56 59 67 75 83 91 92 97
70 69 66 60 62 57 52 46 42 33 26 20 14 11 12 18 22 23 24 26 27 27 29 29 28 28 36 41 46 41 40 35 41 50 54 61 67 75 78 83 89 93 96
84 75 72 70 62 57 52 46 37 29 22 15 10 11 15 18 17 17 19 19 23 28 28 25 24 27 29 29 27 22 28 38 41 50 57 62 68 65 71 81 89 95 97
80 78 73 68 62 56 49 40 33 25 16 9 6 7 11 14 12 11 14 16 21 23 25 28 30 28 25 22 23 25 29 32 36 44 53 54 58 64 76 81 79 73 74
81 76 70 65 61 53 46 36 28 19 12 6 4 7 11 13 13 12 14 17 17 18 17 19 22 25 29 31 31 36 41 45 45 47 45 43 52 62 64 62 63 69 74
83 76 67 59 56 47 38 31 25 19 16 12 10 13 14 13 13 14 15 17 14 15 18 20 21 24 30 32 38 46 49 45 46 47 35 36 50 57 53 58 62 70 77
74 66 57 49 44 41 37 34 28 22 19 17 17 18 18 19 19 17 15 16 12 14 16 18 21 26 32 40 47 51 51 57 58 52 46 37 52 60 56 53 55 59 61
67 60 53 48 46 42 39 33 27 22 21 20 17 22 23 27 31 30 24 17 19 17 20 23 27 31 35 40 42 43 50 50 51 50 58 47 54 62 61 54 49 50 55
61 56 52 47 43 39 34 31 23 19 20 18 20 23 26 28 25 23 19 18 19 20 24 27 29 32 34 34 36 41 45 49 53 58 63 59 59 65 64 61 54 54 51
58 55 51 47 42 34 27 26 25 18 15 20 23 26 26 19 15 15 17 18 18 22 24 24 25 31 34 34 41 46 51 57 62 64 66 67 59 64 66 66 64 64 57
54 49 43 39 41 40 32 27 23 19 23 27 25 26 25 23 24 23 22 22 23 25 26 27 28 34 43 45 48 54 58 61 65 67 69 66 65 65 72 76 80 79 70
53 51 48 46 42 41 38 34 33 36 27 25 27 26 21 25 29 24 21 24 29 31 28 28 36 44 52 57 59 62 63 64 67 69 72 74 74 77 75 82 85 83 77
59 56 53 52 49 45 46 48 43 37 35 33 30 24 23 25 21 21 20 21 27 32 34 44 48 54 60 64 66 67 68 68 69 71 73 77 80 81 84 85 87 88 86
54 54 53 51 49 48 42 39 44 42 38 36 31 27 25 22 18 23 23 23 27 31 44 48 50 54 58 62 63 66 69 68 67 70 73 80 81 80 87 90 90 92 93
47 44 43 46 46 44 39 37 37 35 36 34 30 30 26 23 22 24 25 21 33 42 46 49 50 54 58 61 63 66 67 68 70 72 75 80 82 83 86 91 90 93 93
41 42 39 39 36 36 37 37 34 30 28 28 25 26 28 24 23 25 28 35 37 40 44 46 48 52 55 56 58 60 63 67 70 73 77 80 83 83 84 88 90 91 94
36 32 29 30 35 35 33 32 30 26 24 23 22 27 26 21 28 30 32 33 35 37 41 44 47 51 56 59 62 64 65 68 72 75 78 81 81 80 82 85 89 93 96
32 30 27 29 29 29 28 26 23 21 21 20 21 22 25 26 28 29 29 31 34 35 38 41 45 49 54 58 61 63 65 67 69 72 75 79 80 80 80 81 86 89 92
29 27 23 23 27 27 26 21 15 15 17 18 19 18 21 25 26 28 27 28 32 34 36 39 43 48 53 57 59 60 62 65 68 72 74 76 78 78 78 82 85 90 92
25 25 26 24 21 21 20 16 12 10 12 13 14 15 18 24 25 27 28 28 31 33 35 38 42 45 48 52 55 58 61 64 66 68 71 73 75 77 77 80 83 88 91
26 25 24 22 19 16 13 12 7 5 7 10 11 13 17 22 23 25 27 28 30 33 35 38 43 46 48 51 53 55 57 59 61 63 65 68 72 74 74 75 79 81 88
16 16 16 14 12 9 8 4 1 4 6 9 11 13 15 19 21 25 27 29 33 35 36 39 44 47 49 50 51 53 56 56 58 60 61 63 66 70 72 72 76 78 82
12 12 14 12 8 5 2 3 5 8 10 11 13 14 16 19 23 26 27 32 35 37 38 41 44 47 48 49 51 53 54 56 57 59 60 61 65 67 71 70 73 77 80
Wind_Direction_500mb
191 193 196 191 192 185 181 179 182 181 184 190 200 212 221 241 269 284 295 294 293 293 301 305 308 308 306 304 302 307 302 309 307 308 309 318 320 325 327 331 330 327 325
192 191 185 180 173 177 178 173 178 181 179 195 207 218 228 256 283 301 299 294 299 306 308 312 312 311 310 312 313 315 315 312 312 310 315 328 329 330 329 326 328 327 327
188 186 173 171 167 169 170 168 174 180 188 188 200 217 242 269 287 298 305 310 314 316 318 319 314 310 312 318 322 321 319 311 312 311 316 322 326 327 325 324 324 324 325
178 179 168 161 158 165 166 164 169 172 178 188 204 227 252 281 301 307 309 313 321 323 320 316 311 313 317 324 326 323 320 315 314 322 326 327 328 328 328 326 322 326 325
165 163 158 159 158 158 161 163 166 169 176 188 211 239 272 291 305 311 316 321 323 323 320 315 317 326 324 322 323 325 322 324 328 322 328 330 330 330 329 326 326 326 324
155 153 155 155 157 157 157 161 165 167 175 188 217 264 295 312 319 323 322 330 343 346 352 353 350 344 335 329 330 334 334 337 335 331 327 330 327 327 324 326 325 326 328
153 150 153 153 152 154 156 159 161 165 171 204 252 317 336 340 339 346 349 357 2 7 12 359 345 346 348 347 346 346 345 341 331 329 326 329 326 328 323 321 323 323 323
147 148 150 151 149 152 155 158 157 164 176 161 77 25 14 9 13 8 4 3 357 353 353 5 7 360 355 358 348 341 341 343 345 339 331 329 328 327 325 325 328 327 331
143 146 149 152 151 153 153 154 157 160 143 110 85 56 41 35 37 27 23 18 11 20 21 16 9 358 349 345 346 344 345 348 348 345 332 330 337 340 341 340 341 339 336
143 145 149 151 152 153 152 152 147 141 122 100 79 56 57 59 56 49 48 47 42 44 38 32 13 359 341 341 347 348 350 353 348 348 347 334 349 352 353 353 348 340 339
146 146 148 150 148 147 146 143 138 127 110 103 67 67 62 58 58 61 63 59 50 27 18 13 6 352 344 344 347 354 354 348 353 354 0 356 358 359 358 357 356 348 340
143 143 143 142 139 141 145 135 129 119 111 83 73 80 77 69 63 59 56 41 27 15 20 8 0 352 353 354 0 2 359 1 2 2 5 3 359 2 0 358 0 360 358
138 137 136 136 135 142 142 133 136 119 102 101 100 88 82 77 72 56 44 41 36 30 25 13 12 18 21 20 15 12 11 10 8 7 7 7 1 3 2 1 7 8 3
133 133 133 132 130 131 134 129 134 128 119 112 104 92 89 86 74 64 54 47 41 33 26 26 27 28 29 26 21 20 18 16 11 8 8 7 8 7 9 10 9 9 5
122 122 125 126 130 132 128 126 125 113 109 111 101 95 86 70 52 42 40 32 31 28 21 26 27 26 25 25 24 21 19 16 12 9 7 9 12 10 12 14 13 9 8
118 119 118 119 121 125 127 122 114 110 108 99 91 80 70 62 54 45 42 31 25 22 25 31 29 26 24 21 19 19 17 15 13 9 8 12 12 10 11 14 13 12 9
116 117 117 116 116 114 114 117 117 109 103 95 86 79 69 61 48 46 33 22 25 23 33 31 28 24 21 19 17 17 15 14 12 12 10 13 12 10 13 13 11 11 10
111 113 115 116 113 108 103 108 113 113 108 98 82 70 57 49 37 37 37 24 33 31 31 28 24 20 18 17 16 14 13 12 13 12 13 12 11 11 12 12 10 10 10
118 122 121 116 112 110 102 105 112 107 102 94 83 62 43 35 32 31 29 30 31 27 24 22 20 17 15 14 14 14 12 13 13 13 13 12 10 10 12 12 7 11 11
120 118 120 123 121 113 104 102 106 106 103 93 72 53 38 22 31 29 27 25 23 22 18 15 13 11 10 10 11 11 12 12 12 12 11 11 10 8 11 10 10 8 9
126 124 124 121 115 116 115 108 103 99 91 79 65 50 30 22 28 24 19 16 14 13 9 8 7 7 6 7 7 7 8 10 11 11 10 9 8 8 9 9 10 10 9
128 130 134 128 122 123 124 122 110 85 70 52 49 37 19 20 20 18 12 8 5 3 1 1 3 4 4 3 3 4 5 6 8 8 8 7 6 8 6 7 9 10 9
142 138 138 132 130 136 132 127 117 78 55 40 30 16 9 15 15 9 6 1 356 357 357 357 359 0 1 1 1 1 3 5 6 5 4 3 3 6 6 5 8 8 9
156 151 142 130 128 144 146 140 124 65 28 19 8 1 3 9 8 3 0 357 353 355 355 354 355 357 358 358 358 359 1 3 2 3 3 2 1 3 5 4 7 7 7
144 146 155 141 141 142 150 152 317 341 337 343 338 343 352 358 357 357 358 356 355 355 353 352 351 353 354 355 355 356 357 358 359 0 1 2 1 0 4 3 3 6 6
144 152 160 165 175 184 228 280 303 293 304 318 319 326 335 343 348 353 355 357 355 352 349 348 348 348 350 351 351 352 352 354 356 357 359 1 1 1 0 2 1 5 5
Wind_Speed_850mb
80 76 65 57 49 43 36 31 29 26 27 25 21 18 14 11 11 13 16 19 21 26 30 36 40 44 42 40 37 34 34 42 56 62 59 50 49 51 53 58 58 60 63
81 71 60 55 50 41 38 38 34 34 28 21 18 17 14 11 13 16 20 25 27 32 39 37 37 38 36 35 36 37 38 47 59 60 53 51 55 57 62 66 72 75 77
76 62 58 55 49 46 44 42 39 31 27 25 21 17 13 13 14 19 25 31 35 33 33 31 30 32 35 37 37 41 47 53 48 42 44 52 57 64 69 73 79 85 86
67 61 63 58 58 50 49 46 39 35 29 23 18 14 13 15 19 25 30 30 29 31 31 29 30 32 34 39 45 50 50 45 41 43 53 56 59 67 75 83 91 92 97
70 69 66 60 62 57 52 46 42 33 26 20 14 11 12 18 22 23 24 26 27 27 29 29 28 28 36 41 46 41 40 35 41 50 54 61 67 75 78 83 89 93 96
84 75 72 70 62 57 52 46 37 29 22 15 10 11 15 18 17 17 19 19 23 28 28 25 24 27 29 29 27 22 28 38 41 50 57 62 68 65 71 81 89 95 97
80 78 73 68 62 56 49 40 33 25 16 9 6 7 11 14 12 11 14 16 21 23 25 28 30 28 25 22 23 25 29 32 36 44 53 54 58 64 76 81 79 73 74
81 76 70 65 61 53 46 36 28 19 12 6 4 7 11 13 13 12 14 17 17 18 17 19 22 25 29 31 31 36 41 45 45 47 45 43 52 62 64 62 63 69 74
83 76 67 59 56 47 38 31 25 19 16 12 10 13 14 13 13 14 15 17 14 15 18 20 21 24 30 32 38 46 49 45 46 47 35 36 50 57 53 58 62 70 77
74 66 57 49 44 41 37 34 28 22 19 17 17 18 18 19 19 17 15 16 12 14 16 18 21 26 32 40 47 51 51 57 58 52 46 37 52 60 56 53 55 59 61
67 60 53 48 46 42 39 33 27 22 21 20 17 22 23 27 31 30 24 17 19 17 20 23 27 31 35 40 42 43 50 50 51 50 58 47 54 62 61 54 49 50 55
61 56 52 47 43 39 34 31 23 19 20 18 20 23 26 28 25 23 19 18 19 20 24 27 29 32 34 34 36 41 45 49 53 58 63 59 59 65 64 61 54 54 51
58 55 51 47 42 34 27 26 25 18 15 20 23 26 26 19 15 15 17 18 18 22 24 24 25 31 34 34 41 46 51 57 62 64 66 67 59 64 66 66 64 64 57
54 49 43 39 41 40 32 27 23 19 23 27 25 26 25 23 24 23 22 22 23 25 26 27 28 34 43 45 48 54 58 61 65 67 69 66 65 65 72 76 80 79 70
53 51 48 46 42 41 38 34 33 36 27 25 27 26 21 25 29 24 21 24 29 31 28 28 36 44 52 57 59 62 63 64 67 69 72 74 74 77 75 82 85 83 77
59 56 53 52 49 45 46 48 43 37 35 33 30 24 23 25 21 21 20 21 27 32 34 44 48 54 60 64 66 67 68 68 69 71 73 77 80 81 84 85 87 88 86
54 54 53 51 49 48 42 39 44 42 38 36 31 27 25 22 18 23 23 23 27 31 44 48 50 54 58 62 63 66 69 68 67 70 73 80 81 80 87 90 90 92 93
47 44 43 46 46 44 39 37 37 35 36 34 30 30 26 23 22 24 25 21 33 42 46 49 50 54 58 61 63 66 67 68 70 72 75 80 82 83 86 91 90 93 93
41 42 39 39 36 36 37 37 34 30 28 28 25 26 28 24 23 25 28 35 37 40 44 46 48 52 55 56 58 60 63 67 70 73 77 80 83 83 84 88 90 91 94
36 32 29 30 35 35 33 32 30 26 24 23 22 27 26 21 28 30 32 33 35 37 41 44 47 51 56 59 62 64 65 68 72 75 78 81 81 80 82 85 89 93 96
32 30 27 29 29 29 28 26 23 21 21 20 21 22 25 26 28 29 29 31 34 35 38 41 45 49 54 58 61 63 65 67 69 72 75 79 80 80 80 81 86 89 92
29 27 23 23 27 27 26 21 15 15 17 18 19 18 21 25 26 28 27 28 32 34 36 39 43 48 53 57 59 60 62 65 68 72 74 76 78 78 78 82 85 90 92
25 25 26 24 21 21 20 16 12 10 12 13 14 15 18 24 25 27 28 28 31 33 35 38 42 45 48 52 55 58 61 64 66 68 71 73 75 77 77 80 83 88 91
26 25 24 22 19 16 13 12 7 5 7 10 11 13 17 22 23 25 27 28 30 33 35 38 43 46 48 51 53 55 57 59 61 63 65 68 72 74 74 75 79 81 88
16 16 16 14 12 9 8 4 1 4 6 9 11 13 15 19 21 25 27 29 33 35 36 39 44 47 49 50 51 53 56 56 58 60 61 63 66 70 72 72 76 78 82
12 12 14 12 8 5 2 3 5 8 10 11 13 14 16 19 23 26 27 32 35 37 38 41 44 47 48 49 51 53 54 56 57 59 60 61 65 67 71 70 73 77 80
Wind_Direction_850mb
191 193 196 191 192 185 181 179 182 181 184 190 200 212 221 241 269 284 295 294 293 293 301 305 308 308 306 304 302 307 302 309 307 308 309 318 320 325 327 331 330 327 325
192 191 185 180 173 177 178 173 178 181 179 195 207 218 228 256 283 301 299 294 299 306 308 312 312 311 310 312 313 315 315 312 312 310 315 328 329 330 329 326 328 327 327
188 186 173 171 167 169 170 168 174 180 188 188 200 217 242 269 287 298 305 310 314 316 318 319 314 310 312 318 322 321 319 311 312 311 316 322 326 327 325 324 324 324 325
178 179 168 161 158 165 166 164 169 172 178 188 204 227 252 281 301 307 309 313 321 323 320 316 311 313 317 324 326 323 320 315 314 322 326 327 328 328 328 326 322 326 325
165 163 158 159 158 158 161 163 166 169 176 188 211 239 272 291 305 311 316 321 323 323 320 315 317 326 324 322 323 325 322 324 328 322 328 330 330 330 329 326 326 326 324
155 153 155 155 157 157 157 161 165 167 175 188 217 264 295 312 319 323 322 330 343 346 352 353 350 344 335 329 330 334 334 337 335 331 327 330 327 327 324 326 325 326 328
153 150 153 153 152 154 156 159 161 165 171 204 252 317 336 340 339 346 349 357 2 7 12 359 345 346 348 347 346 346 345 341 331 329 326 329 326 328 323 321 323 323 323
147 148 150 151 149 152 155 158 157 164 176 161 77 25 14 9 13 8 4 3 357 353 353 5 7 360 355 358 348 341 341 343 345 339 331 329 328 327 325 325 328 327 331
143 146 149 152 151 153 153 154 157 160 143 110 85 56 41 35 37 27 23 18 11 20 21 16 9 358 349 345 346 344 345 348 348 345 332 330 337 340 341 340 341 339 336
143 145 149 151 152 153 152 152 147 141 122 100 79 56 57 59 56 49 48 47 42 44 38 32 13 359 341 341 347 348 350 353 348 348 347 334 349 352 353 353 348 340 339
146 146 148 150 148 147 146 143 138 127 110 103 67 67 62 58 58 61 63 59 50 27 18 13 6 352 344 344 347 354 354 348 353 354 0 356 358 359 358 357 356 348 340
143 143 143 142 139 141 145 135 129 119 111 83 73 80 77 69 63 59 56 41 27 15 20 8 0 352 353 354 0 2 359 1 2 2 5 3 359 2 0 358 0 360 358
138 137 136 136 135 142 142 133 136 119 102 101 100 88 82 77 72 56 44 41 36 30 25 13 12 18 21 20 15 12 11 10 8 7 7 7 1 3 2 1 7 8 3
133 133 133 132 130 131 134 129 134 128 119 112 104 92 89 86 74 64 54 47 41 33 26 26 27 28 29 26 21 20 18 16 11 8 8 7 8 7 9 10 9 9 5
122 122 125 126 130 132 128 126 125 113 109 111 101 95 86 70 52 42 40 32 31 28 21 26 27 26 25 25 24 21 19 16 12 9 7 9 12 10 12 14 13 9 8
118 119 118 119 121 125 127 122 114 110 108 99 91 80 70 62 54 45 42 31 25 22 25 31 29 26 24 21 19 19 17 15 13 9 8 12 12 10 11 14 13 12 9
116 117 117 116 116 114 114 117 117 109 103 95 86 79 69 61 48 46 33 22 25 23 33 31 28 24 21 19 17 17 15 14 12 12 10 13 12 10 13 13 11 11 10
111 113 115 116 113 108 103 108 113 113 108 98 82 70 57 49 37 37 37 24 33 31 31 28 24 20 18 17 16 14 13 12 13 12 13 12 11 11 12 12 10 10 10
118 122 121 116 112 110 102 105 112 107 102 94 83 62 43 35 32 31 29 30 31 27 24 22 20 17 15 14 14 14 12 13 13 13 13 12 10 10 12 12 7 11 11
120 118 120 123 121 113 104 102 106 106 103 93 72 53 38 22 31 29 27 25 23 22 18 15 13 11 10 10 11 11 12 12 12 12 11 11 10 8 11 10 10 8 9
126 124 124 121 115 116 115 108 103 99 91 79 65 50 30 22 28 24 19 16 14 13 9 8 7 7 6 7 7 7 8 10 11 11 10 9 8 8 9 9 10 10 9
128 130 134 128 122 123 124 122 110 85 70 52 49 37 19 20 20 18 12 8 5 3 1 1 3 4 4 3 3 4 5 6 8 8 8 7 6 8 6 7 9 10 9
142 138 138 132 130 136 132 127 117 78 55 40 30 16 9 15 15 9 6 1 356 357 357 357 359 0 1 1 1 1 3 5 6 5 4 3 3 6 6 5 8 8 9
156 151 142 130 128 144 146 140 124 65 28 19 8 1 3 9 8 3 0 357 353 355 355 354 355 357 358 358 358 359 1 3 2 3 3 2 1 3 5 4 7 7 7
144 146 155 141 141 142 150 152 317 341 337 343 338 343 352 358 357 357 358 356 355 355 353 352 351 353 354 355 355 356 357 358 359 0 1 2 1 0 4 3 3 6 6
144 152 160 165 175 184 228 280 303 293 304 318 319 326 335 343 348 353 355 357 355 352 349 348 348 348 350 351 351 352 352 354 356 357 359 1 1 1 0 2 1 5 5